Date,TemperatureHighF,TemperatureAvgF,TemperatureLowF,DewpointHighF,DewpointAvgF,DewpointLowF,HumidityHigh,HumidityAvg,HumidityLow,PressureMaxIn,PressureMinIn,WindSpeedMaxMPH,WindSpeedAvgMPH,GustSpeedMaxMPH,PrecipitationSumIn
2014-1-1,49.4,31.4,22.9,30.8,23.7,20.4,91,75,37,30.34,30.06,7,0,0,0.00
2014-1-2,37.5,31.2,16.9,36.0,28.2,8.2,96,89,67,30.06,29.68,15,2,0,0.20
2014-1-3,25.6,16.6,11.7,10.8,6.4,2.4,80,64,41,30.42,30.02,12,1,0,0.00
2014-1-4,43.2,25.4,14.4,23.0,12.8,6.8,79,62,27,30.37,30.13,6,0,0,0.00
2014-1-5,51.4,38.4,26.7,47.0,31.6,20.5,92,77,58,30.13,29.50,6,0,0,0.06
2014-1-6,49.4,16.7,0.1,47.5,9.6,-11.5,94,74,46,30.38,29.50,15,4,0,0.26
2014-1-7,13.6,2.1,-3.7,-0.4,-7.9,-13.4,76,63,49,30.60,30.37,12,2,11,0.00
2014-1-8,35.5,14.4,3.4,17.7,4.8,-2.6,81,67,33,30.61,30.45,6,0,6,0.00
2014-1-9,49.6,33.4,23.6,28.5,21.3,15.9,81,63,30,30.50,30.29,4,0,4,0.00
2014-1-10,55.4,44.8,37.9,49.7,42.0,27.0,97,90,62,30.29,29.86,5,0,5,0.01
2014-1-11,55.1,50.0,40.5,52.4,45.0,30.1,98,84,52,29.88,29.51,13,2,13,0.93
2014-1-12,51.6,39.8,31.6,32.9,30.1,26.1,84,69,40,30.10,29.80,10,1,10,0.00
2014-1-13,44.5,35.7,29.4,36.5,29.1,25.6,90,78,55,30.06,29.88,5,0,5,0.00
2014-1-14,51.1,41.6,31.0,42.1,36.3,28.7,96,83,44,29.93,29.74,7,1,11,0.11
2014-1-15,38.8,34.1,27.0,32.5,26.8,14.0,92,75,47,30.01,29.84,11,1,11,0.01
2014-1-16,27.0,22.6,18.0,16.6,14.4,13.0,84,71,62,30.04,29.98,6,1,6,0.00
2014-1-17,43.8,33.9,22.9,25.3,20.7,14.3,82,60,43,29.99,29.75,22,4,0,0.00
2014-1-18,32.7,24.1,17.7,15.7,11.2,6.6,75,58,43,30.10,29.89,14,2,0,0.00
2014-1-19,42.5,33.9,24.2,25.2,20.4,12.1,68,57,47,29.98,29.85,12,1,0,0.00
2014-1-20,54.5,39.0,30.9,27.2,23.6,21.1,75,56,30,29.92,29.76,12,1,0,0.00
2014-1-21,44.3,32.4,15.9,29.0,21.8,5.7,82,65,52,29.96,29.60,15,2,0,0.00
2014-1-22,24.1,16.0,7.2,5.7,-0.1,-5.9,67,50,30,30.13,29.96,10,2,0,0.00
2014-1-23,23.0,17.7,7.0,11.8,1.4,-10.1,69,49,27,30.54,30.11,14,3,0,0.00
2014-1-24,23.0,9.6,-1.0,-2.6,-7.1,-12.7,73,49,21,30.65,30.16,12,1,0,0.00
2014-1-25,29.4,22.6,11.9,19.4,7.1,-7.7,88,53,25,30.16,29.73,16,3,0,0.06
2014-1-26,50.4,32.9,11.9,28.0,15.4,2.9,71,49,32,29.94,29.73,13,1,0,0.00
2014-1-27,46.1,36.1,17.0,30.9,18.3,-6.9,67,49,33,30.20,29.71,13,2,0,0.00
2014-1-28,16.9,13.9,10.9,10.7,4.7,-6.6,84,68,34,30.32,30.21,10,1,0,0.11
2014-1-29,21.0,9.0,-1.8,8.2,1.0,-8.3,84,70,46,30.42,30.25,8,0,0,0.00
2014-1-30,36.2,15.6,-1.2,14.9,3.0,-7.2,79,60,27,30.40,30.14,7,0,0,0.00
2014-1-31,44.5,26.3,17.2,23.7,13.6,8.4,74,61,28,30.25,30.13,7,0,7,0.00
2014-2-1,65.3,41.9,26.4,36.8,24.8,18.8,86,55,23,30.17,29.95,7,0,7,0.00
2014-2-2,45.8,41.5,33.1,44.7,38.7,31.1,96,90,68,30.05,29.87,10,0,10,0.18
2014-2-3,43.5,38.3,33.2,42.4,35.5,30.0,97,90,73,30.19,29.74,22,2,22,1.10
2014-2-4,54.4,40.1,30.6,46.9,34.4,28.6,93,81,57,30.20,29.78,9,0,6,0.00
2014-2-5,54.7,42.0,26.6,48.2,36.7,18.5,96,81,68,30.21,29.66,17,3,0,0.17
2014-2-6,34.1,27.6,24.4,20.5,17.5,15.1,75,66,48,30.37,30.20,8,1,0,0.00
2014-2-7,40.3,30.4,26.9,22.4,20.5,19.1,79,67,46,30.35,30.22,7,1,0,0.00
2014-2-8,39.5,34.0,28.4,30.3,25.8,21.8,83,72,61,30.23,30.10,6,0,0,0.00
2014-2-9,42.3,37.5,33.8,35.1,32.3,29.7,90,82,72,30.14,29.96,7,1,0,0.01
2014-2-10,34.3,31.2,25.0,30.5,25.2,16.8,93,78,66,30.24,30.05,9,1,6,0.00
2014-2-11,41.8,29.1,22.4,16.9,11.5,-0.8,74,51,18,30.30,30.20,11,1,11,0.00
2014-2-12,33.7,28.1,24.5,25.3,17.5,9.6,92,67,39,30.24,29.82,10,1,10,0.50
2014-2-13,34.9,29.8,24.7,31.4,27.0,22.7,92,89,80,29.82,29.67,12,1,12,0.09
2014-2-14,47.7,38.1,31.2,33.3,27.9,25.2,83,67,48,29.81,29.56,12,1,12,0.00
2014-2-15,38.8,32.5,24.8,36.2,28.1,19.2,93,84,77,29.91,29.53,19,4,19,0.05
2014-2-16,47.7,34.0,24.4,28.8,24.7,16.3,88,70,44,30.15,30.01,6,1,13,0.00
2014-2-17,56.7,39.0,26.7,40.8,28.9,23.6,91,70,34,30.20,29.94,10,1,10,0.04
2014-2-18,57.6,43.7,30.1,44.2,28.5,17.0,93,60,24,30.20,29.93,14,1,14,0.00
2014-2-19,66.8,51.7,42.2,53.6,41.7,25.0,97,72,31,30.01,29.81,13,1,13,0.45
2014-2-20,73.7,60.4,45.1,51.1,44.6,35.7,77,57,35,29.97,29.66,15,2,17,0.00
2014-2-21,64.8,48.8,34.9,53.6,35.5,19.9,95,63,31,30.05,29.58,18,3,18,0.53
2014-2-22,62.3,43.2,29.1,28.1,21.0,10.9,74,47,15,30.17,29.98,12,0,12,0.00
2014-2-23,65.5,48.5,34.6,34.6,25.3,17.2,63,42,23,30.03,29.85,13,1,13,0.00
2014-2-24,48.9,39.7,29.3,36.9,19.5,6.2,81,49,20,30.15,29.94,11,2,11,0.00
2014-2-25,44.3,36.5,29.1,20.0,13.9,6.8,54,40,27,30.08,29.94,10,1,10,0.00
2014-2-26,36.9,30.9,24.2,19.3,14.1,3.9,62,50,34,29.99,29.84,14,2,14,0.00
2014-2-27,40.9,27.9,18.0,11.4,4.4,-2.0,66,38,19,30.01,29.86,13,2,13,0.00
2014-2-28,50.1,33.8,18.6,16.4,10.3,5.8,69,41,18,30.15,30.00,9,0,9,0.00
2014-3-1,60.1,44.6,31.2,33.9,24.2,13.0,69,46,28,30.21,30.08,11,1,11,0.00
2014-3-2,62.7,52.0,40.3,52.1,42.1,31.5,96,70,53,30.12,29.80,11,1,11,0.06
2014-3-3,52.2,30.1,19.2,51.1,27.4,14.3,96,89,81,30.26,29.75,23,3,23,0.95
2014-3-4,42.8,29.8,18.9,30.5,22.3,14.0,90,74,56,30.25,30.10,6,1,7,0.00
2014-3-5,58.9,39.9,28.1,34.1,26.6,9.4,94,65,20,30.16,30.03,9,1,9,0.00
2014-3-6,51.0,41.6,34.7,27.8,22.5,18.5,72,48,28,30.17,29.99,6,1,7,0.00
2014-3-7,58.9,42.1,33.5,39.7,33.9,22.9,93,75,44,30.01,29.87,10,1,10,0.02
2014-3-8,64.5,48.0,34.4,40.2,33.4,28.7,95,63,27,30.07,29.94,13,1,13,0.00
2014-3-9,60.7,49.1,36.3,37.9,30.5,19.7,69,51,23,30.11,29.97,11,2,11,0.00
2014-3-10,63.1,46.4,33.8,40.5,33.9,22.9,84,63,41,30.02,29.80,12,1,12,0.00
2014-3-11,71.8,54.2,37.8,43.1,37.7,32.3,90,58,25,29.83,29.58,11,1,11,0.00
2014-3-12,63.5,45.8,28.4,55.7,38.6,23.9,96,77,57,29.81,29.24,27,3,27,0.12
2014-3-13,41.2,30.5,24.7,25.0,9.3,-1.0,87,44,18,30.22,29.80,14,2,14,0.00
2014-3-14,60.4,43.7,23.9,29.3,19.1,9.0,65,40,23,30.24,29.93,14,2,14,0.00
2014-3-15,54.1,51.2,48.2,34.1,31.2,27.8,57,47,36,29.99,29.92,11,3,11,0.00
2014-3-16,48.5,44.5,39.3,45.1,38.1,27.1,93,80,46,29.94,29.64,7,1,12,0.22
2014-3-17,40.6,37.6,35.3,37.5,35.1,32.1,95,90,83,29.84,29.63,9,1,9,0.18
2014-3-18,63.1,46.3,34.6,43.2,36.3,30.0,90,70,45,29.96,29.81,11,1,11,0.00
2014-3-19,64.8,48.7,35.0,44.9,40.4,33.1,96,75,40,29.99,29.83,14,2,14,0.00
2014-3-20,58.0,46.4,35.3,44.9,25.8,13.4,85,49,18,30.07,29.91,14,2,14,0.00
2014-3-21,67.9,49.4,30.7,32.7,22.7,16.9,68,40,15,30.12,29.91,10,1,10,0.00
2014-3-22,68.6,54.5,39.9,40.9,32.1,26.1,62,44,28,29.96,29.88,9,1,9,0.00
2014-3-23,54.5,43.0,29.7,37.7,28.2,19.8,87,58,34,30.19,29.90,16,2,16,0.00
2014-3-24,50.8,36.5,23.8,21.6,13.2,7.0,72,42,18,30.24,29.95,11,1,11,0.00
2014-3-25,39.9,34.1,26.1,29.8,20.6,9.2,90,60,30,30.10,29.85,17,2,17,0.02
2014-3-26,43.6,30.4,22.4,15.2,10.5,5.8,63,45,22,30.31,30.10,13,2,13,0.00
2014-3-27,65.2,44.2,25.4,22.6,15.8,10.0,63,36,14,30.28,30.02,14,1,14,0.00
2014-3-28,62.1,56.2,50.1,51.9,43.3,21.5,85,63,31,30.03,29.92,7,1,7,0.01
2014-3-29,61.2,51.9,35.9,57.3,48.9,32.2,95,89,82,29.98,29.54,17,1,17,0.37
2014-3-30,54.4,39.8,32.4,33.2,28.3,19.0,94,68,29,30.14,29.88,18,3,18,0.00
2014-3-31,70.8,47.4,29.7,34.8,26.3,21.4,83,51,17,30.20,30.01,6,1,6,0.00
2014-4-1,78.3,58.8,43.9,40.5,34.6,27.8,70,44,19,30.08,29.93,14,1,14,0.00
2014-4-2,81.1,63.1,47.3,47.8,39.4,30.2,60,44,20,30.04,29.91,10,1,10,0.00
2014-4-3,80.7,67.3,55.4,60.7,52.0,35.4,97,61,32,29.98,29.73,13,1,13,0.29
2014-4-4,67.3,60.1,53.8,56.5,54.0,45.1,95,81,62,29.83,29.64,15,2,15,0.38
2014-4-5,60.5,48.8,38.8,45.6,32.8,27.2,75,56,29,30.04,29.83,12,2,12,0.01
2014-4-6,67.3,52.6,39.5,38.1,31.5,27.6,69,47,27,30.04,29.87,11,1,11,0.00
2014-4-7,68.6,54.1,44.3,54.4,48.6,38.8,98,83,58,29.92,29.44,16,2,16,0.85
2014-4-8,58.0,51.1,45.1,48.4,37.7,31.2,74,61,37,29.70,29.56,14,2,14,0.00
2014-4-9,63.4,51.0,41.8,43.6,35.0,22.3,90,59,24,30.07,29.70,13,2,13,0.03
2014-4-10,73.2,53.3,35.6,42.0,31.4,26.6,78,48,19,30.18,30.01,13,1,13,0.00
2014-4-11,75.8,60.1,45.8,43.3,36.5,26.9,71,45,18,30.12,29.96,17,2,17,0.00
2014-4-12,81.4,64.8,48.5,51.1,45.8,41.9,88,54,27,30.14,29.93,10,1,10,0.00
2014-4-13,85.9,68.6,52.2,51.0,46.7,42.5,78,49,25,30.03,29.84,13,1,13,0.00
2014-4-14,69.9,64.4,58.4,60.7,53.9,49.2,92,70,52,29.83,29.64,14,1,14,0.06
2014-4-15,61.2,43.8,32.1,56.5,39.1,18.0,95,84,55,30.11,29.53,18,2,18,0.48
2014-4-16,60.9,41.3,26.7,33.1,20.2,14.3,76,46,22,30.34,30.11,10,1,10,0.00
2014-4-17,70.6,52.3,37.2,31.8,22.4,12.8,56,34,12,30.38,30.21,11,2,11,0.00
2014-4-18,62.0,52.8,44.8,38.7,29.2,21.3,61,41,30,30.29,30.11,6,0,9,0.00
2014-4-19,73.2,59.2,48.2,41.3,35.2,30.1,64,43,23,30.12,30.02,14,1,14,0.00
2014-4-20,76.5,58.7,42.6,40.0,33.0,19.1,82,45,14,30.20,30.05,10,1,10,0.00
2014-4-21,79.6,61.3,43.6,47.7,36.0,26.8,64,41,22,30.10,29.82,9,1,9,0.00
2014-4-22,66.0,60.0,54.4,59.2,51.9,42.8,92,75,60,29.83,29.66,9,1,9,0.10
2014-4-23,69.8,56.7,46.1,50.2,26.7,15.9,72,34,14,29.97,29.74,12,2,12,0.00
2014-4-24,80.5,58.3,40.6,38.4,29.9,20.4,66,39,13,29.99,29.78,9,1,9,0.00
2014-4-25,64.7,58.7,55.0,59.7,48.5,37.0,94,70,46,29.89,29.64,13,1,13,0.51
2014-4-26,79.6,60.0,43.3,49.7,42.0,29.2,97,61,17,29.97,29.86,10,1,10,0.00
2014-4-27,86.1,65.5,47.9,53.6,43.3,37.8,77,49,19,29.95,29.77,7,0,9,0.00
2014-4-28,82.0,67.9,59.5,65.6,58.5,51.3,95,74,43,29.81,29.68,11,1,11,0.04
2014-4-29,78.1,66.0,61.2,65.8,60.7,56.6,96,84,53,29.77,29.58,7,1,7,0.40
2014-4-30,80.5,65.5,53.9,60.0,56.5,52.4,96,75,40,29.83,29.65,11,1,0,0.11
2014-5-1,65.5,56.0,51.0,53.0,44.9,35.2,97,70,36,29.89,29.78,14,1,0,0.01
2014-5-2,66.4,52.7,39.8,43.5,37.9,32.3,88,61,30,29.92,29.81,9,1,0,0.00
2014-5-3,54.7,49.4,42.5,41.8,39.7,37.0,87,70,56,29.91,29.82,5,0,0,0.00
2014-5-4,82.8,64.8,46.5,48.6,43.5,39.2,83,50,25,29.96,29.82,5,1,15,0.00
2014-5-5,85.1,69.1,53.2,52.5,48.8,44.3,82,52,25,29.90,29.73,5,1,16,0.00
2014-5-6,85.5,71.8,56.6,55.0,50.3,43.2,85,50,24,29.87,29.74,12,1,13,0.00
2014-5-7,88.2,68.9,54.1,56.2,51.8,44.4,92,60,25,30.01,29.85,10,1,10,0.00
2014-5-8,86.3,69.0,53.9,56.8,51.7,45.8,88,59,27,30.12,29.96,10,1,10,0.00
2014-5-9,79.9,64.6,56.6,62.3,55.8,53.0,89,75,43,30.02,29.94,10,0,1,0.00
2014-5-10,74.9,62.4,58.0,63.3,58.9,55.8,96,89,58,30.03,29.89,7,0,0,0.45
2014-5-11,83.6,64.9,54.2,64.7,58.0,53.4,98,82,38,30.10,29.98,5,0,0,0.01
2014-5-12,86.7,70.2,57.3,64.6,59.7,55.5,97,73,39,30.10,29.98,9,1,0,0.00
2014-5-13,88.0,70.3,61.5,67.5,63.1,59.3,95,80,43,30.05,29.95,7,0,0,0.02
2014-5-14,89.7,72.7,63.1,64.5,58.8,48.6,96,68,27,30.02,29.81,17,1,0,0.01
2014-5-15,72.7,59.5,48.8,65.1,56.9,45.4,97,92,58,29.97,29.74,12,1,7,1.55
2014-5-16,61.5,48.7,39.3,49.5,42.9,38.2,96,82,44,30.07,29.91,14,1,0,0.12
2014-5-17,60.4,47.7,36.3,47.8,41.1,35.3,98,80,48,30.16,30.04,9,1,0,0.00
2014-5-18,71.5,55.1,43.9,45.5,40.0,31.0,90,61,27,30.18,30.08,7,0,0,0.00
2014-5-19,74.6,55.5,41.3,47.6,41.4,35.4,93,64,27,30.23,30.11,6,0,0,0.00
2014-5-20,80.1,62.1,47.4,57.7,50.7,38.2,92,69,41,30.19,29.98,9,1,0,0.00
2014-5-21,81.1,70.6,61.2,63.2,58.5,55.0,90,66,48,30.03,29.89,13,1,0,0.17
2014-5-22,82.4,69.3,59.3,66.0,60.8,56.2,96,76,47,29.99,29.87,7,0,0,0.06
2014-5-23,78.8,67.7,56.6,64.5,58.3,47.5,96,75,40,30.03,29.88,10,1,0,0.12
2014-5-24,81.4,63.7,49.6,54.9,48.2,42.6,92,62,29,30.10,29.98,6,0,0,0.00
2014-5-25,77.2,63.1,50.7,59.1,52.5,44.5,94,71,35,30.09,30.01,4,0,0,0.00
2014-5-26,86.3,69.3,55.6,62.5,58.3,53.8,96,72,36,30.12,29.97,6,1,0,0.00
2014-5-27,86.1,68.1,60.2,67.6,62.7,57.2,96,84,45,30.02,29.91,10,0,0,0.06
2014-5-28,88.8,70.7,59.9,66.7,61.8,55.9,98,77,38,29.98,29.87,4,0,0,0.00
2014-5-29,88.2,70.4,61.2,65.3,62.5,59.6,97,79,43,29.98,29.88,6,0,0,0.88
2014-5-30,80.9,67.4,61.5,70.9,65.3,60.6,98,93,60,30.01,29.92,11,0,0,0.15
2014-5-31,89.0,72.1,61.6,67.3,61.8,49.3,98,75,28,30.04,29.93,7,0,0,0.00
2014-6-1,83.8,70.2,60.7,63.2,58.5,55.4,90,68,46,30.12,30.02,7,1,0,0.00
2014-6-2,86.7,69.9,57.0,61.4,57.2,54.5,93,67,37,30.14,29.97,9,0,0,0.00
2014-6-3,81.4,68.8,63.2,66.6,61.1,55.9,94,77,56,30.03,29.89,6,0,0,0.00
2014-6-4,86.7,71.9,60.4,68.7,63.5,59.3,97,78,46,29.92,29.67,9,1,0,0.00
2014-6-5,77.4,71.1,65.0,68.1,65.6,60.0,92,83,66,29.81,29.63,11,1,0,0.07
2014-6-6,84.9,69.2,58.7,61.5,56.3,49.8,93,67,31,29.88,29.80,5,0,0,0.00
2014-6-7,88.4,71.2,57.5,64.5,58.7,54.0,90,67,35,29.91,29.80,6,0,0,0.00
2014-6-8,84.0,72.5,65.0,66.7,62.8,55.7,95,73,50,29.82,29.74,12,1,0,0.00
2014-6-9,85.7,69.5,58.7,63.4,59.3,55.3,91,72,44,29.84,29.75,8,0,0,0.00
2014-6-10,92.1,71.5,61.2,70.1,63.0,59.5,96,78,39,29.87,29.72,17,0,0,0.54
2014-6-11,79.6,68.1,62.0,71.3,65.4,61.1,97,92,64,29.82,29.69,5,0,0,0.45
2014-6-12,79.4,68.2,62.9,67.2,64.7,61.8,98,90,59,29.81,29.71,6,0,0,0.12
2014-6-13,83.8,68.7,62.3,66.1,62.5,55.7,98,83,39,29.86,29.74,6,0,0,0.06
2014-6-14,85.7,68.1,57.0,62.6,55.8,42.4,97,70,25,30.00,29.86,5,0,0,0.01
2014-6-15,91.4,72.1,56.3,67.7,58.7,51.1,86,66,37,30.08,29.95,6,0,0,0.00
2014-6-16,92.1,75.9,64.8,69.6,65.3,59.9,94,72,37,30.10,29.99,6,0,0,0.00
2014-6-17,91.8,74.8,63.5,68.5,63.7,57.6,96,72,32,30.11,29.97,7,0,0,0.00
2014-6-18,93.8,75.8,63.9,69.0,64.6,61.1,95,72,36,30.07,29.96,7,0,0,0.00
2014-6-19,90.1,74.0,65.0,70.1,66.6,62.5,96,79,46,30.05,29.97,9,0,0,0.00
2014-6-20,88.4,70.3,62.6,70.4,65.0,61.2,97,85,50,30.00,29.87,11,0,0,0.64
2014-6-21,86.5,71.6,64.5,70.4,66.1,63.4,98,85,51,29.89,29.77,7,0,0,0.02
2014-6-22,89.0,74.1,65.5,69.6,65.3,59.0,97,77,43,29.86,29.76,4,0,0,0.00
2014-6-23,92.5,72.2,64.3,69.6,65.5,62.8,96,82,41,29.95,29.82,7,0,0,0.07
2014-6-24,88.2,73.4,65.5,69.2,66.0,62.7,97,80,43,29.98,29.85,7,0,0,0.01
2014-6-25,84.9,72.4,66.1,69.8,66.5,63.3,97,83,55,29.93,29.84,6,0,0,0.18
2014-6-26,88.8,73.6,65.2,68.7,65.1,59.2,97,78,39,29.97,29.85,6,0,0,0.00
2014-6-27,90.5,74.7,67.1,67.2,65.0,62.2,91,74,42,29.98,29.87,5,0,0,0.00
2014-6-28,81.2,71.1,66.3,72.0,67.5,64.8,97,89,63,30.09,29.97,7,0,0,1.64
2014-6-29,85.1,72.6,66.4,72.2,68.3,65.8,98,88,59,30.12,29.99,11,0,0,0.25
2014-6-30,83.2,71.0,63.7,70.5,67.1,62.8,98,88,59,30.01,29.85,6,0,6,0.01
2014-7-1,89.5,75.6,66.4,73.3,69.0,65.2,98,82,49,29.89,29.76,6,0,6,0.00
2014-7-2,93.2,78.4,68.9,70.8,68.1,61.1,96,74,36,29.86,29.77,7,0,7,0.00
2014-7-3,83.0,73.5,66.6,67.4,63.2,52.8,92,72,50,29.97,29.82,11,1,11,0.00
2014-7-4,80.9,67.4,56.5,56.3,52.3,47.5,94,61,33,30.17,29.96,7,1,7,0.00
2014-7-5,85.5,66.8,51.6,61.0,52.7,49.1,95,65,31,30.21,30.07,7,0,7,0.00
2014-7-6,88.0,70.4,59.3,60.6,56.4,50.6,92,66,29,30.09,29.93,5,0,5,0.00
2014-7-7,90.7,73.1,58.7,65.2,59.5,54.5,94,66,36,29.97,29.81,9,1,9,0.00
2014-7-8,84.3,72.1,66.1,69.2,64.3,58.9,97,78,55,29.90,29.77,14,1,14,0.46
2014-7-9,81.2,71.7,67.1,70.7,67.8,66.2,97,88,63,29.94,29.83,9,0,9,0.26
2014-7-10,87.8,73.0,63.5,67.5,64.1,54.9,97,77,36,30.02,29.90,6,0,6,0.00
2014-7-11,93.4,73.1,60.9,64.6,60.4,52.6,97,71,27,30.10,29.99,4,0,4,0.00
2014-7-12,92.5,75.4,64.2,69.0,64.4,59.2,96,72,38,30.11,30.00,4,0,4,0.00
2014-7-13,90.5,76.0,65.5,70.4,67.2,63.8,96,77,46,30.03,29.89,10,0,10,0.00
2014-7-14,92.9,74.9,67.8,75.2,68.6,65.4,96,83,43,29.91,29.76,10,0,10,0.31
2014-7-15,80.7,69.1,62.0,69.4,66.1,56.8,97,91,65,29.83,29.72,8,0,8,0.70
2014-7-16,80.1,64.7,54.5,59.0,53.8,48.3,93,71,36,29.93,29.80,6,0,6,0.00
2014-7-17,83.8,64.8,51.1,59.0,53.4,48.1,97,71,36,30.01,29.91,6,0,6,0.00
2014-7-18,65.5,63.6,60.7,64.3,60.7,53.5,97,91,69,30.09,29.97,6,0,6,1.08
2014-7-19,74.9,66.1,61.8,67.4,62.9,60.3,98,90,71,30.05,29.93,9,1,9,0.80
2014-7-20,83.4,69.3,61.5,69.5,64.1,59.6,96,84,59,30.01,29.91,5,0,5,0.04
2014-7-21,90.5,73.7,63.7,69.4,66.1,62.5,97,80,43,30.02,29.93,8,0,8,0.00
2014-7-22,92.5,75.2,63.5,71.2,66.5,62.3,97,77,43,30.06,29.94,7,0,7,0.00
2014-7-23,76.7,70.2,65.6,71.6,67.9,64.4,97,92,79,30.00,29.84,6,0,3,0.14
2014-7-24,85.9,70.0,64.8,73.3,65.9,60.6,98,88,54,29.92,29.77,15,0,0,0.48
2014-7-25,85.5,68.4,57.5,65.5,60.6,56.7,98,79,43,29.99,29.89,5,0,0,0.00
2014-7-26,85.9,70.6,58.9,69.0,62.9,57.6,97,79,50,29.98,29.85,7,0,0,0.00
2014-7-27,82.6,70.7,65.6,74.1,67.7,64.4,97,91,73,29.90,29.71,19,0,0,0.98
2014-7-28,76.0,68.0,59.9,65.7,61.4,57.1,98,81,55,29.87,29.74,9,1,0,0.00
2014-7-29,77.6,64.0,54.2,58.4,54.4,49.0,96,74,42,30.00,29.85,7,1,0,0.00
2014-7-30,81.2,62.7,49.8,60.5,53.0,48.7,97,75,33,30.06,29.97,4,0,0,0.00
2014-7-31,83.8,65.8,54.8,65.7,58.9,53.6,97,81,46,30.04,29.97,5,0,0,0.02
2014-8-1,84.5,67.7,61.5,63.9,61.3,59.9,96,82,48,30.03,29.95,7,0,0,0.00
2014-8-5,87.6,77.9,63.7,65.1,61.2,55.0,88,59,39,29.98,29.91,5,0,0,0.00
2014-8-6,85.1,69.5,60.1,72.6,63.7,58.2,95,83,53,29.95,29.86,6,0,0,0.09
2014-8-7,88.8,71.7,62.7,67.9,63.7,56.7,98,80,38,29.96,29.87,5,0,0,0.00
2014-8-8,74.0,68.0,64.7,69.8,65.5,61.1,97,92,81,30.00,29.87,4,0,0,0.45
2014-8-9,86.3,72.6,66.4,73.3,68.6,65.5,98,88,56,29.96,29.84,5,0,0,0.02
2014-8-10,75.4,69.4,64.8,71.6,66.7,62.9,96,91,81,29.98,29.87,5,0,0,0.27
2014-8-11,69.8,67.6,66.1,67.0,65.6,64.9,97,93,86,29.94,29.89,4,0,0,0.35
2014-8-19,81.1,79.4,78.6,68.2,67.2,66.7,67,66,65,29.76,29.76,4,1,0,0.00